Glasgow, United Kingdom

3:17 PM BST on September 20, 2017 (GMT +0100)
Glasgow

Weather History for EGPF - September, 2013

Change the Weather History Date:

Friday, September 13, 2013

  Actual Average Record
Temperature  
Mean Temperature 48 °F -  
Max Temperature 53 °F 57 °F 71 °F (2006)
Min Temperature 41 °F 44 °F 33 °F (1996)
Degree Days  
Heating Degree Days 16    
Moisture  
Dew Point 47 °F    
Average Humidity 92    
Maximum Humidity 100    
Minimum Humidity 82    
Precipitation  
Precipitation 0.00 in - - ()
Sea Level Pressure  
Sea Level Pressure 30.06 in    
Wind  
Wind Speed 5 mph ()    
Max Wind Speed 9 mph    
Max Gust Speed -    
Visibility 5.2 miles    
Events Fog , Rain    
Averages and records for this station are not official NWS values.
T = Trace of Precipitation, MM = Missing Value Source: Averaged Metar Reports

Daily Weather History Graph

Daily Weather History Graph

Search for Another Location

Airport or City:

Trip Planner

Search our weather history database for the weather conditions in past years. The results will help you decide how hot, cold, wet, or windy it might be!

Date:

Astronomy

Sep. 13, 2013 Rise Set
Actual Time 6:45 AM BST 7:40 PM BST
Civil Twilight 6:07 AM BST 8:17 PM BST
Nautical Twilight 5:22 AM BST 9:03 PM BST
Astronomical Twilight 4:31 AM BST 9:53 PM BST
Moon 4:04 PM BST (9/13) No Moon Set
Length of Visible Light 14h 09m
Length of Day
12h 54m
First Quarter, 59% of the Moon is Illuminated
Sep 13
First Quarter
Sep 19
Full
Sep 27
Last Quarter
Oct 5
New
Oct 12
First Quarter

Hourly Weather History & Observations

Time (BST) Temp. Windchill Dew Point Humidity Pressure Visibility Wind Dir Wind Speed Gust Speed Precip Events Conditions
12:20 AM 53.6 °F - 50.0 °F 88% 30.01 in 6.2 mi West 5.8 mph - N/A   Mostly Cloudy
12:50 AM 53.6 °F - 50.0 °F 88% 30.01 in 6.2 mi West 6.9 mph - N/A   Scattered Clouds
1:20 AM 51.8 °F - 48.2 °F 88% 30.01 in 6.2 mi West 9.2 mph - N/A   Scattered Clouds
1:50 AM 51.8 °F - 46.4 °F 82% 30.01 in 6.2 mi West 8.1 mph - N/A   Partly Cloudy
2:20 AM 50.0 °F - 44.6 °F 82% 30.01 in 6.2 mi West 6.9 mph - N/A   Unknown
2:50 AM 48.2 °F - 44.6 °F 87% 30.01 in - WSW 5.8 mph - N/A   Clear
3:20 AM 46.4 °F 42.4 °F 44.6 °F 93% 30.01 in - WSW 8.1 mph - N/A   Clear
3:50 AM 48.2 °F - 44.6 °F 87% 30.04 in 6.2 mi WSW 5.8 mph - N/A   Mostly Cloudy
4:20 AM 48.2 °F - 44.6 °F 87% 30.04 in 6.2 mi West 5.8 mph - N/A   Mostly Cloudy
4:50 AM 46.4 °F 44.3 °F 44.6 °F 93% 30.04 in 6.2 mi West 4.6 mph - N/A   Partly Cloudy
5:20 AM 46.4 °F 44.3 °F 42.8 °F 87% 30.04 in 6.2 mi WSW 4.6 mph - N/A   Mostly Cloudy
5:50 AM 46.4 °F 43.5 °F 44.6 °F 93% 30.04 in 6.2 mi SW 5.8 mph - N/A   Mostly Cloudy
6:20 AM 48.2 °F - 44.6 °F 87% 30.04 in 6.2 mi SSW 4.6 mph - N/A   Mostly Cloudy
6:50 AM 48.2 °F - 44.6 °F 87% 30.06 in 6.2 mi SW 4.6 mph - N/A   Overcast
7:20 AM 48.2 °F - 44.6 °F 87% 30.06 in 6.2 mi SW 4.6 mph - N/A   Mostly Cloudy
7:50 AM 48.2 °F - 46.4 °F 93% 30.06 in 6.2 mi WSW 4.6 mph - N/A   Mostly Cloudy
8:20 AM 48.2 °F - 44.6 °F 87% 30.06 in 6.2 mi SW 4.6 mph - N/A   Mostly Cloudy
8:50 AM 48.2 °F - 44.6 °F 87% 30.06 in 6.2 mi SW 4.6 mph - N/A   Mostly Cloudy
9:20 AM 50.0 °F - 44.6 °F 82% 30.09 in 3.7 mi Variable 2.3 mph - N/A Rain Light Rain
9:50 AM 48.2 °F - 46.4 °F 93% 30.09 in 2.2 mi Variable 2.3 mph - N/A Rain Light Rain
10:20 AM 48.2 °F - 46.4 °F 93% 30.09 in 3.7 mi Calm Calm - N/A Rain Light Rain
10:50 AM 50.0 °F - 48.2 °F 94% 30.09 in 3.7 mi Variable 2.3 mph - N/A   Light Drizzle
11:20 AM 50.0 °F - 48.2 °F 94% 30.09 in 2.5 mi East 2.3 mph - N/A   Overcast
11:50 AM 50.0 °F - 50.0 °F 100% 30.09 in - Variable 3.5 mph - N/A Rain Light Rain
12:20 PM 50.0 °F - 50.0 °F 100% 30.09 in - East 5.8 mph - N/A   Light Drizzle
12:50 PM 51.8 °F - 48.2 °F 88% 30.09 in 4.3 mi ENE 5.8 mph - N/A   Mostly Cloudy
1:20 PM 50.0 °F - 50.0 °F 100% 30.09 in 1.7 mi NNE 4.6 mph - N/A Rain Light Rain
1:50 PM 50.0 °F - 50.0 °F 100% 30.09 in 1.6 mi NNE 4.6 mph - N/A   Drizzle
2:20 PM 50.0 °F - 50.0 °F 100% 30.09 in 1.4 mi North 5.8 mph - N/A   Light Drizzle
2:50 PM 50.0 °F - 48.2 °F 94% 30.09 in 1.1 mi NNE 4.6 mph - N/A Rain Rain
3:20 PM 50.0 °F - 48.2 °F 94% 30.09 in 1.5 mi NE 6.9 mph - N/A   Light Drizzle
3:50 PM 50.0 °F - 48.2 °F 94% 30.09 in 6.2 mi ENE 4.6 mph - N/A   Light Drizzle
4:20 PM 50.0 °F - 48.2 °F 94% 30.06 in 6.2 mi ESE 6.9 mph - N/A Rain Light Rain
4:50 PM 50.0 °F - 48.2 °F 94% 30.06 in 6.2 mi East 5.8 mph - N/A   Mostly Cloudy
5:20 PM 51.8 °F - 48.2 °F 88% 30.06 in 6.2 mi Variable 3.5 mph - N/A   Mostly Cloudy
5:50 PM 51.8 °F - 48.2 °F 88% 30.06 in 6.2 mi Variable 3.5 mph - N/A   Scattered Clouds
6:20 PM 51.8 °F - 48.2 °F 88% 30.06 in 6.2 mi Calm Calm - N/A   Scattered Clouds
6:50 PM 51.8 °F - 48.2 °F 88% 30.04 in 6.2 mi Calm Calm - N/A   Scattered Clouds
7:20 PM 50.0 °F - 48.2 °F 94% 30.04 in 6.2 mi West 2.3 mph - N/A   Partly Cloudy
7:50 PM 50.0 °F - 48.2 °F 94% 30.06 in 6.2 mi WNW 2.3 mph - N/A   Partly Cloudy
8:20 PM 50.0 °F - 48.2 °F 94% 30.06 in 6.2 mi Calm Calm - N/A   Partly Cloudy
8:50 PM 48.2 °F - 48.2 °F 100% 30.06 in 6.2 mi Calm Calm - N/A   Partly Cloudy
9:20 PM 48.2 °F - 48.2 °F 100% 30.06 in 6.2 mi WSW 2.3 mph - N/A   Partly Cloudy
9:50 PM 48.2 °F - 46.4 °F 93% 30.06 in 6.2 mi Variable 2.3 mph - N/A Fog Shallow Fog
10:20 PM 48.2 °F - 48.2 °F 100% 30.04 in 6.2 mi Variable 2.3 mph - N/A Fog Patches of Fog
10:50 PM 44.6 °F 42.2 °F 44.6 °F 100% 30.04 in - WSW 4.6 mph - N/A   Clear
11:20 PM 44.6 °F 42.2 °F 44.6 °F 100% 30.04 in 6.2 mi SW 4.6 mph - N/A   Partly Cloudy
11:50 PM 41.0 °F 38.0 °F 41.0 °F 100% 30.04 in 5.0 mi SW 4.6 mph - N/A   Unknown